Year,Month,Day,Hour,Minute,Value (Times are PST for temperature in C)
2014,06,22,00,00,11.30
2014,06,22,00,01,11.30
2014,06,22,00,02,11.20
2014,06,22,00,03,11.20
2014,06,22,00,04,11.10
2014,06,22,00,05,11.10
2014,06,22,00,06,11.10
2014,06,22,00,07,11.10
2014,06,22,00,08,11.10
2014,06,22,00,09,11.10
2014,06,22,00,10,11.10
2014,06,22,00,11,11.10
2014,06,22,00,12,11.10
2014,06,22,00,13,11.10
2014,06,22,00,14,11.10
2014,06,22,00,15,11.10
2014,06,22,00,16,11.10
2014,06,22,00,17,11.10
2014,06,22,00,18,11.10
2014,06,22,00,19,11.10
2014,06,22,00,20,11.10
2014,06,22,00,21,11.10
2014,06,22,00,22,11.10
2014,06,22,00,23,11.10
2014,06,22,00,24,11.10
2014,06,22,00,25,11.10
2014,06,22,00,26,11.10
2014,06,22,00,27,11.10
2014,06,22,00,28,11.10
2014,06,22,00,29,11.10
2014,06,22,00,30,11.10
2014,06,22,00,31,11.10
2014,06,22,00,32,11.10
2014,06,22,00,33,11.10
2014,06,22,00,34,11.10
2014,06,22,00,35,11.10
2014,06,22,00,36,11.00
2014,06,22,00,37,10.90
2014,06,22,00,38,10.90
2014,06,22,00,39,10.90
2014,06,22,00,40,10.90
2014,06,22,00,41,10.80
2014,06,22,00,42,10.80
2014,06,22,00,43,10.80
2014,06,22,00,44,10.80
2014,06,22,00,45,10.80
2014,06,22,00,46,10.70
2014,06,22,00,47,10.70
2014,06,22,00,48,10.70
2014,06,22,00,49,10.70
2014,06,22,00,50,10.70
2014,06,22,00,51,10.70
2014,06,22,00,52,10.70
2014,06,22,00,53,10.70
2014,06,22,00,54,10.70
2014,06,22,00,55,10.70
2014,06,22,00,56,10.60
2014,06,22,00,57,10.60
2014,06,22,00,58,10.60
2014,06,22,00,59,10.60
2014,06,22,01,00,10.60
2014,06,22,01,01,10.60
2014,06,22,01,02,10.60
2014,06,22,01,03,10.60
2014,06,22,01,04,10.60
2014,06,22,01,05,10.60
2014,06,22,01,06,10.60
2014,06,22,01,07,10.60
2014,06,22,01,08,10.60
2014,06,22,01,09,10.50
2014,06,22,01,10,10.40
2014,06,22,01,11,10.40
2014,06,22,01,12,10.40
2014,06,22,01,13,10.40
2014,06,22,01,14,10.40
2014,06,22,01,15,10.40
2014,06,22,01,16,10.40
2014,06,22,01,17,10.30
2014,06,22,01,18,10.30
2014,06,22,01,19,10.30
2014,06,22,01,20,10.30
2014,06,22,01,21,10.30
2014,06,22,01,22,10.30
2014,06,22,01,23,10.30
2014,06,22,01,24,10.20
2014,06,22,01,25,10.20
2014,06,22,01,26,10.20
2014,06,22,01,27,10.20
2014,06,22,01,28,10.20
2014,06,22,01,29,10.20
2014,06,22,01,30,10.20
2014,06,22,01,31,10.20
2014,06,22,01,32,10.10
2014,06,22,01,33,10.10
2014,06,22,01,34,10.10
2014,06,22,01,35,10.10
2014,06,22,01,36,10.10
2014,06,22,01,37,10.10
2014,06,22,01,38,10.10
2014,06,22,01,39,10.10
2014,06,22,01,40,10.10
2014,06,22,01,41,10.10
2014,06,22,01,42,10.10
2014,06,22,01,43,10.10
2014,06,22,01,44,10.20
2014,06,22,01,45,10.20
2014,06,22,01,46,10.20
2014,06,22,01,47,10.20
2014,06,22,01,48,10.20
2014,06,22,01,49,10.20
2014,06,22,01,50,10.20
2014,06,22,01,51,10.20
2014,06,22,01,52,10.20
2014,06,22,01,53,10.30
2014,06,22,01,54,10.30
2014,06,22,01,55,10.30
2014,06,22,01,56,10.30
2014,06,22,01,57,10.30
2014,06,22,01,58,10.30
2014,06,22,01,59,10.30
2014,06,22,02,00,10.30
2014,06,22,02,01,10.30
2014,06,22,02,02,10.30
2014,06,22,02,03,10.20
2014,06,22,02,04,10.20
2014,06,22,02,05,10.10
2014,06,22,02,06,10.10
2014,06,22,02,07,10.10
2014,06,22,02,08,10.00
2014,06,22,02,09,9.90
2014,06,22,02,10,9.90
2014,06,22,02,11,9.90
2014,06,22,02,12,9.90
2014,06,22,02,13,9.90
2014,06,22,02,14,9.80
2014,06,22,02,15,9.80
2014,06,22,02,16,9.80
2014,06,22,02,17,9.80
2014,06,22,02,18,9.80
2014,06,22,02,19,9.80
2014,06,22,02,20,9.70
2014,06,22,02,21,9.70
2014,06,22,02,22,9.70
2014,06,22,02,23,9.70
2014,06,22,02,24,9.70
2014,06,22,02,25,9.70
2014,06,22,02,26,9.70
2014,06,22,02,27,9.70
2014,06,22,02,28,9.70
2014,06,22,02,29,9.70
2014,06,22,02,30,9.70
2014,06,22,02,31,9.70
2014,06,22,02,32,9.70
2014,06,22,02,33,9.70
2014,06,22,02,34,9.70
2014,06,22,02,35,9.70
2014,06,22,02,36,9.70
2014,06,22,02,37,9.70
2014,06,22,02,38,9.70
2014,06,22,02,39,9.70
2014,06,22,02,40,9.70
2014,06,22,02,41,9.70
2014,06,22,02,42,9.70
2014,06,22,02,43,9.70
2014,06,22,02,44,9.70
2014,06,22,02,45,9.70
2014,06,22,02,46,9.70
2014,06,22,02,47,9.70
2014,06,22,02,48,9.70
2014,06,22,02,49,9.70
2014,06,22,02,50,9.70
2014,06,22,02,51,9.70
2014,06,22,02,52,9.70
2014,06,22,02,53,9.70
2014,06,22,02,54,9.70
2014,06,22,02,55,9.70
2014,06,22,02,56,9.70
2014,06,22,02,57,9.60
2014,06,22,02,58,9.60
2014,06,22,02,59,9.50
2014,06,22,03,00,9.50
2014,06,22,03,01,9.40
2014,06,22,03,02,9.30
2014,06,22,03,03,9.30
2014,06,22,03,04,9.20
2014,06,22,03,05,9.20
2014,06,22,03,06,9.20
2014,06,22,03,07,9.10
2014,06,22,03,08,9.00
2014,06,22,03,09,9.00
2014,06,22,03,10,8.90
2014,06,22,03,11,8.90
2014,06,22,03,12,8.80
2014,06,22,03,13,8.80
2014,06,22,03,14,8.70
2014,06,22,03,15,8.70
2014,06,22,03,16,8.70
2014,06,22,03,17,8.70
2014,06,22,03,18,8.70
2014,06,22,03,19,8.70
2014,06,22,03,20,8.60
2014,06,22,03,21,8.60
2014,06,22,03,22,8.50
2014,06,22,03,23,8.50
2014,06,22,03,24,8.40
2014,06,22,03,25,8.40
2014,06,22,03,26,8.30
2014,06,22,03,27,8.30
2014,06,22,03,28,8.20
2014,06,22,03,29,8.20
2014,06,22,03,30,8.20
2014,06,22,03,31,8.20
2014,06,22,03,32,8.20
2014,06,22,03,33,8.20
2014,06,22,03,34,8.20
2014,06,22,03,35,8.10
2014,06,22,03,36,8.10
2014,06,22,03,37,8.10
2014,06,22,03,38,8.10
2014,06,22,03,39,8.10
2014,06,22,03,40,8.00
2014,06,22,03,41,8.00
2014,06,22,03,42,8.00
2014,06,22,03,43,8.00
2014,06,22,03,44,8.00
2014,06,22,03,45,8.00
2014,06,22,03,46,8.00
2014,06,22,03,47,8.00
2014,06,22,03,48,8.00
2014,06,22,03,49,7.90
2014,06,22,03,50,8.00
2014,06,22,03,51,8.00
2014,06,22,03,52,8.00
2014,06,22,03,53,8.00
2014,06,22,03,54,7.90
2014,06,22,03,55,7.90
2014,06,22,03,56,7.90
2014,06,22,03,57,7.80
2014,06,22,03,58,7.80
2014,06,22,03,59,7.80
2014,06,22,04,00,7.80
2014,06,22,04,01,7.70
2014,06,22,04,02,7.70
2014,06,22,04,03,7.70
2014,06,22,04,04,7.70
2014,06,22,04,05,7.70
2014,06,22,04,06,7.70
2014,06,22,04,07,7.70
2014,06,22,04,08,7.70
2014,06,22,04,09,7.70
2014,06,22,04,10,7.70
2014,06,22,04,11,7.70
2014,06,22,04,12,7.70
2014,06,22,04,13,7.80
2014,06,22,04,14,7.80
2014,06,22,04,15,7.80
2014,06,22,04,16,7.80
2014,06,22,04,17,7.80
2014,06,22,04,18,7.70
2014,06,22,04,19,7.70
2014,06,22,04,20,7.70
2014,06,22,04,21,7.70
2014,06,22,04,22,7.70
2014,06,22,04,23,7.70
2014,06,22,04,24,7.70
2014,06,22,04,25,7.70
2014,06,22,04,26,7.70
2014,06,22,04,27,7.70
2014,06,22,04,28,7.70
2014,06,22,04,29,7.80
2014,06,22,04,30,7.80
2014,06,22,04,31,7.80
2014,06,22,04,32,7.80
2014,06,22,04,33,7.80
2014,06,22,04,34,7.80
2014,06,22,04,35,7.80
2014,06,22,04,36,7.90
2014,06,22,04,37,7.90
2014,06,22,04,38,7.90
2014,06,22,04,39,7.80
2014,06,22,04,40,7.80
2014,06,22,04,41,7.80
2014,06,22,04,42,7.80
2014,06,22,04,43,7.70
2014,06,22,04,44,7.60
2014,06,22,04,45,7.60
2014,06,22,04,46,7.60
2014,06,22,04,47,7.60
2014,06,22,04,48,7.50
2014,06,22,04,49,7.50
2014,06,22,04,50,7.50
2014,06,22,04,51,7.50
2014,06,22,04,52,7.50
2014,06,22,04,53,7.60
2014,06,22,04,54,7.60
2014,06,22,04,55,7.60
2014,06,22,04,56,7.60
2014,06,22,04,57,7.60
2014,06,22,04,58,7.60
2014,06,22,04,59,7.60
2014,06,22,05,00,7.60
2014,06,22,05,01,7.60
2014,06,22,05,02,7.60
2014,06,22,05,03,7.70
2014,06,22,05,04,7.70
2014,06,22,05,05,7.70
2014,06,22,05,06,7.70
2014,06,22,05,07,7.70
2014,06,22,05,08,7.80
2014,06,22,05,09,7.80
2014,06,22,05,10,7.80
2014,06,22,05,11,7.70
2014,06,22,05,12,7.70
2014,06,22,05,13,7.60
2014,06,22,05,14,7.60
2014,06,22,05,15,7.50
2014,06,22,05,16,7.50
2014,06,22,05,17,7.50
2014,06,22,05,18,7.40
2014,06,22,05,19,7.40
2014,06,22,05,20,7.40
2014,06,22,05,21,7.50
2014,06,22,05,22,7.50
2014,06,22,05,23,7.50
2014,06,22,05,24,7.50
2014,06,22,05,25,7.50
2014,06,22,05,26,7.50
2014,06,22,05,27,7.50
2014,06,22,05,28,7.40
2014,06,22,05,29,7.40
2014,06,22,05,30,7.40
2014,06,22,05,31,7.30
2014,06,22,05,32,7.30
2014,06,22,05,33,7.30
2014,06,22,05,34,7.30
2014,06,22,05,35,7.30
2014,06,22,05,36,7.30
2014,06,22,05,37,7.30
2014,06,22,05,38,7.30
2014,06,22,05,39,7.30
2014,06,22,05,40,7.30
2014,06,22,05,41,7.30
2014,06,22,05,42,7.30
2014,06,22,05,43,7.30
2014,06,22,05,44,7.30
2014,06,22,05,45,7.30
2014,06,22,05,46,7.40
2014,06,22,05,47,7.40
2014,06,22,05,48,7.40
2014,06,22,05,49,7.40
2014,06,22,05,50,7.40
2014,06,22,05,51,7.50
2014,06,22,05,52,7.50
2014,06,22,05,53,7.50
2014,06,22,05,54,7.50
2014,06,22,05,55,7.50
2014,06,22,05,56,7.60
2014,06,22,05,57,7.60
2014,06,22,05,58,7.60
2014,06,22,05,59,7.70
2014,06,22,06,00,7.70
2014,06,22,06,01,7.70
2014,06,22,06,02,7.70
2014,06,22,06,03,7.70
2014,06,22,06,04,7.80
2014,06,22,06,05,7.80
2014,06,22,06,06,7.80
2014,06,22,06,07,7.80
2014,06,22,06,08,7.80
2014,06,22,06,09,7.80
2014,06,22,06,10,7.80
2014,06,22,06,11,7.80
2014,06,22,06,12,7.70
2014,06,22,06,13,7.70
2014,06,22,06,14,7.70
2014,06,22,06,15,7.70
2014,06,22,06,16,7.70
2014,06,22,06,17,7.80
2014,06,22,06,18,7.80
2014,06,22,06,19,7.80
2014,06,22,06,20,7.80
2014,06,22,06,21,7.80
2014,06,22,06,22,7.80
2014,06,22,06,23,7.90
2014,06,22,06,24,7.90
2014,06,22,06,25,7.90
2014,06,22,06,26,8.00
2014,06,22,06,27,8.00
2014,06,22,06,28,8.00
2014,06,22,06,29,8.10
2014,06,22,06,30,8.20
2014,06,22,06,31,8.20
2014,06,22,06,32,8.20
2014,06,22,06,33,8.30
2014,06,22,06,34,8.40
2014,06,22,06,35,8.40
2014,06,22,06,36,8.50
2014,06,22,06,37,8.60
2014,06,22,06,38,8.60
2014,06,22,06,39,8.70
2014,06,22,06,40,8.70
2014,06,22,06,41,8.80
2014,06,22,06,42,8.80
2014,06,22,06,43,8.90
2014,06,22,06,44,9.00
2014,06,22,06,45,9.00
2014,06,22,06,46,9.10
2014,06,22,06,47,9.20
2014,06,22,06,48,9.20
2014,06,22,06,49,9.30
2014,06,22,06,50,9.30
2014,06,22,06,51,9.40
2014,06,22,06,52,9.50
2014,06,22,06,53,9.60
2014,06,22,06,54,9.60
2014,06,22,06,55,9.70
2014,06,22,06,56,9.70
2014,06,22,06,57,9.80
2014,06,22,06,58,9.90
2014,06,22,06,59,9.90
2014,06,22,07,00,9.90
2014,06,22,07,01,10.00
2014,06,22,07,02,10.10
2014,06,22,07,03,10.10
2014,06,22,07,04,10.20
2014,06,22,07,05,10.20
2014,06,22,07,06,10.30
2014,06,22,07,07,10.30
2014,06,22,07,08,10.40
2014,06,22,07,09,10.40
2014,06,22,07,10,10.40
2014,06,22,07,11,10.60
2014,06,22,07,12,10.60
2014,06,22,07,13,10.70
2014,06,22,07,14,10.80
2014,06,22,07,15,10.90
2014,06,22,07,16,10.90
2014,06,22,07,17,11.10
2014,06,22,07,18,11.20
2014,06,22,07,19,11.40
2014,06,22,07,20,11.50
2014,06,22,07,21,11.70
2014,06,22,07,22,11.80
2014,06,22,07,23,12.00
2014,06,22,07,24,12.20
2014,06,22,07,25,12.40
2014,06,22,07,26,12.60
2014,06,22,07,27,12.80
2014,06,22,07,28,12.90
2014,06,22,07,29,13.10
2014,06,22,07,30,13.20
2014,06,22,07,31,13.30
2014,06,22,07,32,13.40
2014,06,22,07,33,13.50
2014,06,22,07,34,13.60
2014,06,22,07,35,13.70
2014,06,22,07,36,13.80
2014,06,22,07,37,14.00
2014,06,22,07,38,14.00
2014,06,22,07,39,14.10
2014,06,22,07,40,14.20
2014,06,22,07,41,14.40
2014,06,22,07,42,14.40
2014,06,22,07,43,14.40
2014,06,22,07,44,14.40
2014,06,22,07,45,14.40
2014,06,22,07,46,14.40
2014,06,22,07,47,14.40
2014,06,22,07,48,14.40
2014,06,22,07,49,14.40
2014,06,22,07,50,14.40
2014,06,22,07,51,14.40
2014,06,22,07,52,14.40
2014,06,22,07,53,14.40
2014,06,22,07,54,14.30
2014,06,22,07,55,14.30
2014,06,22,07,56,14.30
2014,06,22,07,57,14.30
2014,06,22,07,58,14.30
2014,06,22,07,59,14.30
2014,06,22,08,00,14.30
2014,06,22,08,01,14.40
2014,06,22,08,02,14.40
2014,06,22,08,03,14.40
2014,06,22,08,04,14.40
2014,06,22,08,05,14.30
2014,06,22,08,06,14.30
2014,06,22,08,07,14.30
2014,06,22,08,08,14.30
2014,06,22,08,09,14.30
2014,06,22,08,10,14.40
2014,06,22,08,11,14.40
2014,06,22,08,12,14.40
2014,06,22,08,13,14.50
2014,06,22,08,14,14.50
2014,06,22,08,15,14.60
2014,06,22,08,16,14.60
2014,06,22,08,17,14.70
2014,06,22,08,18,14.70
2014,06,22,08,19,14.80
2014,06,22,08,20,14.80
2014,06,22,08,21,14.80
2014,06,22,08,22,14.80
2014,06,22,08,23,14.80
2014,06,22,08,24,14.80
2014,06,22,08,25,14.80
2014,06,22,08,26,14.80
2014,06,22,08,27,14.80
2014,06,22,08,28,14.90
2014,06,22,08,29,14.90
2014,06,22,08,30,14.90
2014,06,22,08,31,15.00
2014,06,22,08,32,15.00
2014,06,22,08,33,15.00
2014,06,22,08,34,15.00
2014,06,22,08,35,15.00
2014,06,22,08,36,15.00
2014,06,22,08,37,15.00
2014,06,22,08,38,15.00
2014,06,22,08,39,14.90
2014,06,22,08,40,14.90
2014,06,22,08,41,14.90
2014,06,22,08,42,14.90
2014,06,22,08,43,14.90
2014,06,22,08,44,14.90
2014,06,22,08,45,14.90
2014,06,22,08,46,14.90
2014,06,22,08,47,14.90
2014,06,22,08,48,14.90
2014,06,22,08,49,14.90
2014,06,22,08,50,14.90
2014,06,22,08,51,14.90
2014,06,22,08,52,14.90
2014,06,22,08,53,14.90
2014,06,22,08,54,14.90
2014,06,22,08,55,14.90
2014,06,22,08,56,15.00
2014,06,22,08,57,15.00
2014,06,22,08,58,15.10
2014,06,22,08,59,15.10
2014,06,22,09,00,15.10
2014,06,22,09,01,15.20
2014,06,22,09,02,15.30
2014,06,22,09,03,15.30
2014,06,22,09,04,15.30
2014,06,22,09,05,15.40
2014,06,22,09,06,15.40
2014,06,22,09,07,15.40
2014,06,22,09,08,15.50
2014,06,22,09,09,15.50
2014,06,22,09,10,15.50
2014,06,22,09,11,15.60
2014,06,22,09,12,15.60
2014,06,22,09,13,15.60
2014,06,22,09,14,15.60
2014,06,22,09,15,15.70
2014,06,22,09,16,15.70
2014,06,22,09,17,15.80
2014,06,22,09,18,15.80
2014,06,22,09,19,15.90
2014,06,22,09,20,16.00
2014,06,22,09,21,16.10
2014,06,22,09,22,16.10
2014,06,22,09,23,16.20
2014,06,22,09,24,16.30
2014,06,22,09,25,16.30
2014,06,22,09,26,16.40
2014,06,22,09,27,16.40
2014,06,22,09,28,16.40
2014,06,22,09,29,16.40
2014,06,22,09,30,16.40
2014,06,22,09,31,16.40
2014,06,22,09,32,16.50
2014,06,22,09,33,16.60
2014,06,22,09,34,16.60
2014,06,22,09,35,16.60
2014,06,22,09,36,16.60
2014,06,22,09,37,16.50
2014,06,22,09,38,16.40
2014,06,22,09,39,16.40
2014,06,22,09,40,16.40
2014,06,22,09,41,16.40
2014,06,22,09,42,16.40
2014,06,22,09,43,16.40
2014,06,22,09,44,16.40
2014,06,22,09,45,16.40
2014,06,22,09,46,16.40
2014,06,22,09,47,16.40
2014,06,22,09,48,16.40
2014,06,22,09,49,16.30
2014,06,22,09,50,16.40
2014,06,22,09,51,16.40
2014,06,22,09,52,16.40
2014,06,22,09,53,16.40
2014,06,22,09,54,16.40
2014,06,22,09,55,16.40
2014,06,22,09,56,16.40
2014,06,22,09,57,16.40
2014,06,22,09,58,16.40
2014,06,22,09,59,16.40
2014,06,22,10,00,16.60
2014,06,22,10,01,16.60
2014,06,22,10,02,16.50
2014,06,22,10,03,16.40
2014,06,22,10,04,16.40
2014,06,22,10,05,16.40
2014,06,22,10,06,16.40
2014,06,22,10,07,16.40
2014,06,22,10,08,16.40
2014,06,22,10,09,16.40
2014,06,22,10,10,16.40
2014,06,22,10,11,16.40
2014,06,22,10,12,16.40
2014,06,22,10,13,16.40
2014,06,22,10,14,16.40
2014,06,22,10,15,16.40
2014,06,22,10,16,16.40
2014,06,22,10,17,16.40
2014,06,22,10,18,16.40
2014,06,22,10,19,16.40
2014,06,22,10,20,16.40
2014,06,22,10,21,16.40
2014,06,22,10,22,16.40
2014,06,22,10,23,16.30
2014,06,22,10,24,16.20
2014,06,22,10,25,16.10
2014,06,22,10,26,16.00
2014,06,22,10,27,15.90
2014,06,22,10,28,15.80
2014,06,22,10,29,15.80
2014,06,22,10,30,15.70
2014,06,22,10,31,15.70
2014,06,22,10,32,15.70
2014,06,22,10,33,15.70
2014,06,22,10,34,15.70
2014,06,22,10,35,15.80
2014,06,22,10,36,15.90
2014,06,22,10,37,16.00
2014,06,22,10,38,16.10
2014,06,22,10,39,16.10
2014,06,22,10,40,16.20
2014,06,22,10,41,16.20
2014,06,22,10,42,16.30
2014,06,22,10,43,16.30
2014,06,22,10,44,16.30
2014,06,22,10,45,16.40
2014,06,22,10,46,16.40
2014,06,22,10,47,16.40
2014,06,22,10,48,16.40
2014,06,22,10,49,16.40
2014,06,22,10,50,16.40
2014,06,22,10,51,16.50
2014,06,22,10,52,16.60
2014,06,22,10,53,16.40
2014,06,22,10,54,16.40
2014,06,22,10,55,16.40
2014,06,22,10,56,16.40
2014,06,22,10,57,16.40
2014,06,22,10,58,16.40
2014,06,22,10,59,16.40
2014,06,22,11,00,16.40
2014,06,22,11,01,16.40
2014,06,22,11,02,16.30
2014,06,22,11,03,16.30
2014,06,22,11,04,16.40
2014,06,22,11,05,16.50
2014,06,22,11,06,16.60
2014,06,22,11,07,16.70
2014,06,22,11,08,16.80
2014,06,22,11,09,16.90
2014,06,22,11,10,17.00
2014,06,22,11,11,17.10
2014,06,22,11,12,17.10
2014,06,22,11,13,17.10
2014,06,22,11,14,17.10
2014,06,22,11,15,17.00
2014,06,22,11,16,16.90
2014,06,22,11,17,16.90
2014,06,22,11,18,16.90
2014,06,22,11,19,16.90
2014,06,22,11,20,16.90
2014,06,22,11,21,16.90
2014,06,22,11,22,16.90
2014,06,22,11,23,16.80
2014,06,22,11,24,16.90
2014,06,22,11,25,16.90
2014,06,22,11,26,17.00
2014,06,22,11,27,17.10
2014,06,22,11,28,17.20
2014,06,22,11,29,17.30
2014,06,22,11,30,17.30
2014,06,22,11,31,17.30
2014,06,22,11,32,17.30
2014,06,22,11,33,17.40
2014,06,22,11,34,17.50
2014,06,22,11,35,17.50
2014,06,22,11,36,17.70
2014,06,22,11,37,17.70
2014,06,22,11,38,17.80
2014,06,22,11,39,17.80
2014,06,22,11,40,17.70
2014,06,22,11,41,17.70
2014,06,22,11,42,17.70
2014,06,22,11,43,17.70
2014,06,22,11,44,17.70
2014,06,22,11,45,17.70
2014,06,22,11,46,17.70
2014,06,22,11,47,17.70
2014,06,22,11,48,17.60
2014,06,22,11,49,17.60
2014,06,22,11,50,17.70
2014,06,22,11,51,17.70
2014,06,22,11,52,17.80
2014,06,22,11,53,17.90
2014,06,22,11,54,17.90
2014,06,22,11,55,18.00
2014,06,22,11,56,18.10
2014,06,22,11,57,18.20
2014,06,22,11,58,18.20
2014,06,22,11,59,18.20
2014,06,22,12,00,18.20
2014,06,22,12,01,18.20
2014,06,22,12,02,18.20
2014,06,22,12,03,18.20
2014,06,22,12,04,18.10
2014,06,22,12,05,18.20
2014,06,22,12,06,18.20
2014,06,22,12,07,18.20
2014,06,22,12,08,18.20
2014,06,22,12,09,18.20
2014,06,22,12,10,18.30
2014,06,22,12,11,18.30
2014,06,22,12,12,18.30
2014,06,22,12,13,18.40
2014,06,22,12,14,18.50
2014,06,22,12,15,18.50
2014,06,22,12,16,18.50
2014,06,22,12,17,18.50
2014,06,22,12,18,18.50
2014,06,22,12,19,18.50
2014,06,22,12,20,18.50
2014,06,22,12,21,18.40
2014,06,22,12,22,18.40
2014,06,22,12,23,18.30
2014,06,22,12,24,18.40
2014,06,22,12,25,18.50
2014,06,22,12,26,18.50
2014,06,22,12,27,18.50
2014,06,22,12,28,18.60
2014,06,22,12,29,18.60
2014,06,22,12,30,18.60
2014,06,22,12,31,18.60
2014,06,22,12,32,18.60
2014,06,22,12,33,18.50
2014,06,22,12,34,18.50
2014,06,22,12,35,18.50
2014,06,22,12,36,18.50
2014,06,22,12,37,18.50
2014,06,22,12,38,18.50
2014,06,22,12,39,18.50
2014,06,22,12,40,18.50
2014,06,22,12,41,18.50
2014,06,22,12,42,18.50
2014,06,22,12,43,18.50
2014,06,22,12,44,18.50
2014,06,22,12,45,18.50
2014,06,22,12,46,18.50
2014,06,22,12,47,18.50
2014,06,22,12,48,18.50
2014,06,22,12,49,18.60
2014,06,22,12,50,18.50
2014,06,22,12,51,18.60
2014,06,22,12,52,18.60
2014,06,22,12,53,18.60
2014,06,22,12,54,18.60
2014,06,22,12,55,18.60
2014,06,22,12,56,18.60
2014,06,22,12,57,18.50
2014,06,22,12,58,18.50
2014,06,22,12,59,18.50
2014,06,22,13,00,18.60
2014,06,22,13,01,18.60
2014,06,22,13,02,18.60
2014,06,22,13,03,18.60
2014,06,22,13,04,18.60
2014,06,22,13,05,18.60
2014,06,22,13,06,18.60
2014,06,22,13,07,18.50
2014,06,22,13,08,18.50
2014,06,22,13,09,18.50
2014,06,22,13,10,18.60
2014,06,22,13,11,18.70
2014,06,22,13,12,18.70
2014,06,22,13,13,18.60
2014,06,22,13,14,18.60
2014,06,22,13,15,18.70
2014,06,22,13,16,18.80
2014,06,22,13,17,18.90
2014,06,22,13,18,19.00
2014,06,22,13,19,19.10
2014,06,22,13,20,19.20
2014,06,22,13,21,19.30
2014,06,22,13,22,19.30
2014,06,22,13,23,19.30
2014,06,22,13,24,19.40
2014,06,22,13,25,19.40
2014,06,22,13,26,19.50
2014,06,22,13,27,19.50
2014,06,22,13,28,19.60
2014,06,22,13,29,19.60
2014,06,22,13,30,19.70
2014,06,22,13,31,19.80
2014,06,22,13,32,19.80
2014,06,22,13,33,19.90
2014,06,22,13,34,19.90
2014,06,22,13,35,20.10
2014,06,22,13,36,20.20
2014,06,22,13,37,20.20
2014,06,22,13,38,20.40
2014,06,22,13,39,20.50
2014,06,22,13,40,20.50
2014,06,22,13,41,20.50
2014,06,22,13,42,20.40
2014,06,22,13,43,20.40
2014,06,22,13,44,20.30
2014,06,22,13,45,20.40
2014,06,22,13,46,20.40
2014,06,22,13,47,20.40
2014,06,22,13,48,20.50
2014,06,22,13,49,20.50
2014,06,22,13,50,20.50
2014,06,22,13,51,20.50
2014,06,22,13,52,20.50
2014,06,22,13,53,20.40
2014,06,22,13,54,20.30
2014,06,22,13,55,20.30
2014,06,22,13,56,20.20
2014,06,22,13,57,20.20
2014,06,22,13,58,20.10
2014,06,22,13,59,20.10
2014,06,22,14,00,20.10
2014,06,22,14,01,20.10
2014,06,22,14,02,20.10
2014,06,22,14,03,20.10
2014,06,22,14,04,20.20
2014,06,22,14,05,20.20
2014,06,22,14,06,20.20
2014,06,22,14,07,20.30
2014,06,22,14,08,20.40
2014,06,22,14,09,20.30
2014,06,22,14,10,20.20
2014,06,22,14,11,20.20
2014,06,22,14,12,20.10
2014,06,22,14,13,20.10
2014,06,22,14,14,20.20
2014,06,22,14,15,20.20
2014,06,22,14,16,20.20
2014,06,22,14,17,20.20
2014,06,22,14,18,20.30
2014,06,22,14,19,20.40
2014,06,22,14,20,20.50
2014,06,22,14,21,20.60
2014,06,22,14,22,20.60
2014,06,22,14,23,20.70
2014,06,22,14,24,20.70
2014,06,22,14,25,20.80
2014,06,22,14,26,20.80
2014,06,22,14,27,20.80
2014,06,22,14,28,20.80
2014,06,22,14,29,20.70
2014,06,22,14,30,20.70
2014,06,22,14,31,20.60
2014,06,22,14,32,20.60
2014,06,22,14,33,20.70
2014,06,22,14,34,20.70
2014,06,22,14,35,20.70
2014,06,22,14,36,20.70
2014,06,22,14,37,20.80
2014,06,22,14,38,20.70
2014,06,22,14,39,20.60
2014,06,22,14,40,20.60
2014,06,22,14,41,20.50
2014,06,22,14,42,20.50
2014,06,22,14,43,20.50
2014,06,22,14,44,20.40
2014,06,22,14,45,20.40
2014,06,22,14,46,20.50
2014,06,22,14,47,20.50
2014,06,22,14,48,20.50
2014,06,22,14,49,20.50
2014,06,22,14,50,20.40
2014,06,22,14,51,20.40
2014,06,22,14,52,20.50
2014,06,22,14,53,20.50
2014,06,22,14,54,20.50
2014,06,22,14,55,20.60
2014,06,22,14,56,20.60
2014,06,22,14,57,20.60
2014,06,22,14,58,20.50
2014,06,22,14,59,20.40
2014,06,22,15,00,20.20
2014,06,22,15,01,20.20
2014,06,22,15,02,20.10
2014,06,22,15,03,20.10
2014,06,22,15,04,20.10
2014,06,22,15,05,20.10
2014,06,22,15,06,20.20
2014,06,22,15,07,20.30
2014,06,22,15,08,20.50
2014,06,22,15,09,20.70
2014,06,22,15,10,20.80
2014,06,22,15,11,21.00
2014,06,22,15,12,21.10
2014,06,22,15,13,21.30
2014,06,22,15,14,21.30
2014,06,22,15,15,21.30
2014,06,22,15,16,21.30
2014,06,22,15,17,21.30
2014,06,22,15,18,21.30
2014,06,22,15,19,21.40
2014,06,22,15,20,21.40
2014,06,22,15,21,21.40
2014,06,22,15,22,21.30
2014,06,22,15,23,21.40
2014,06,22,15,24,21.50
2014,06,22,15,25,21.60
2014,06,22,15,26,21.60
2014,06,22,15,27,21.70
2014,06,22,15,28,21.60
2014,06,22,15,29,21.60
2014,06,22,15,30,21.70
2014,06,22,15,31,21.70
2014,06,22,15,32,21.80
2014,06,22,15,33,21.90
2014,06,22,15,34,22.00
2014,06,22,15,35,22.10
2014,06,22,15,36,22.20
2014,06,22,15,37,22.20
2014,06,22,15,38,22.30
2014,06,22,15,39,22.30
2014,06,22,15,40,22.30
2014,06,22,15,41,22.30
2014,06,22,15,42,22.30
2014,06,22,15,43,22.30
2014,06,22,15,44,22.30
2014,06,22,15,45,22.30
2014,06,22,15,46,22.30
2014,06,22,15,47,22.30
2014,06,22,15,48,22.30
2014,06,22,15,49,22.30
2014,06,22,15,50,22.40
2014,06,22,15,51,22.50
2014,06,22,15,52,22.60
2014,06,22,15,53,22.70
2014,06,22,15,54,22.80
2014,06,22,15,55,22.90
2014,06,22,15,56,23.10
2014,06,22,15,57,23.20
2014,06,22,15,58,23.30
2014,06,22,15,59,23.30
2014,06,22,16,00,23.30
2014,06,22,16,01,23.40
2014,06,22,16,02,23.50
2014,06,22,16,03,23.60
2014,06,22,16,04,23.70
2014,06,22,16,05,23.70
2014,06,22,16,06,23.70
2014,06,22,16,07,23.70
2014,06,22,16,08,23.80
2014,06,22,16,09,23.80
2014,06,22,16,10,23.90
2014,06,22,16,11,23.90
2014,06,22,16,12,24.10
2014,06,22,16,13,24.10
2014,06,22,16,14,24.10
2014,06,22,16,15,23.90
2014,06,22,16,16,23.80
2014,06,22,16,17,23.70
2014,06,22,16,18,23.70
2014,06,22,16,19,23.90
2014,06,22,16,20,23.90
2014,06,22,16,21,23.80
2014,06,22,16,22,23.90
2014,06,22,16,23,23.90
2014,06,22,16,24,24.00
2014,06,22,16,25,24.10
2014,06,22,16,26,24.30
2014,06,22,16,27,24.30
2014,06,22,16,28,24.40
2014,06,22,16,29,24.40
2014,06,22,16,30,24.40
2014,06,22,16,31,24.50
2014,06,22,16,32,24.50
2014,06,22,16,33,24.40
2014,06,22,16,34,24.40
2014,06,22,16,35,24.40
2014,06,22,16,36,24.40
2014,06,22,16,37,24.30
2014,06,22,16,38,24.20
2014,06,22,16,39,24.30
2014,06,22,16,40,24.30
2014,06,22,16,41,24.20
2014,06,22,16,42,24.20
2014,06,22,16,43,24.20
2014,06,22,16,44,24.10
2014,06,22,16,45,24.10
2014,06,22,16,46,24.10
2014,06,22,16,47,24.00
2014,06,22,16,48,23.90
2014,06,22,16,49,23.90
2014,06,22,16,50,23.80
2014,06,22,16,51,23.80
2014,06,22,16,52,23.80
2014,06,22,16,53,23.80
2014,06,22,16,54,23.80
2014,06,22,16,55,23.70
2014,06,22,16,56,23.70
2014,06,22,16,57,23.70
2014,06,22,16,58,23.80
2014,06,22,16,59,23.80
2014,06,22,17,00,23.90
2014,06,22,17,01,23.90
2014,06,22,17,02,24.10
2014,06,22,17,03,24.10
2014,06,22,17,04,24.10
2014,06,22,17,05,24.10
2014,06,22,17,06,24.10
2014,06,22,17,07,24.00
2014,06,22,17,08,23.90
2014,06,22,17,09,23.80
2014,06,22,17,10,23.80
2014,06,22,17,11,23.80
2014,06,22,17,12,23.70
2014,06,22,17,13,23.70
2014,06,22,17,14,23.80
2014,06,22,17,15,23.90
2014,06,22,17,16,23.90
2014,06,22,17,17,23.90
2014,06,22,17,18,23.90
2014,06,22,17,19,24.10
2014,06,22,17,20,24.10
2014,06,22,17,21,24.10
2014,06,22,17,22,24.10
2014,06,22,17,23,24.10
2014,06,22,17,24,24.10
2014,06,22,17,25,24.10
2014,06,22,17,26,24.20
2014,06,22,17,27,24.20
2014,06,22,17,28,24.10
2014,06,22,17,29,24.10
2014,06,22,17,30,24.00
2014,06,22,17,31,23.80
2014,06,22,17,32,23.80